Regional Weather Roundup
Issued by NWS Midland/Odessa, TX

Skip options and go directly to product.
Home | Oldest Version | Previous Version | Current Version | All | Text Only | Save Text | Print | Product List | Glossary Off

Skip product version selection by date and time.   

007
ASUS44 KMAF 010410
RWRMAF
MIDLAND AREA WEATHER ROUNDUP
NATIONAL WEATHER SERVICE MIDLAND TX
1100 PM CDT TUE JUN 30 2015

...IN SOUTHWEST TEXAS AND SOUTHEAST NEW MEXICO...

CITY           SKY/WX    TMP DP  RH WIND       PRES   REMARKS
ALPINE         PTCLDY    71  63  77 SE10      30.19R
ANDREWS        FAIR      76  64  66 SE7       30.08R
ARTESIA        CLEAR     79  57  47 S9        30.07R
BIG SPRING     CLEAR     79  67  67 SE6       30.08R
CARLSBAD       CLEAR     77  54  44 S8        30.04R
DRYDEN           N/A     77  67  71 VRB3      30.02R
FORT STOCKTON  CLEAR     76  64  66 SE12G21   30.07R
GUAD PASS      PTCLDY    69  49  48 NE13      30.21R
HOBBS          CLEAR     73  57  56 SE6       30.10R
MARFA          PTCLDY   N/A N/A N/A NE7       30.18R
MIDLAND AIRPK  CLEAR     81  65  58 SE9       30.07R
MIDLAND INTL   CLEAR     77  67  71 SE10      30.06R
ODESSA         CLEAR     78  66  66 SE10      30.07R
PECOS          CLEAR     79  60  51 E8        30.03R
PRESIDIO       FAIR      80  58  47 CALM      30.00R
SEMINOLE       CLEAR     74  58  58 SE6       30.10R
SNYDER         CLEAR     77  70  78 E5        30.06R
WINK           CLEAR     81  61  50 SE9       30.02R
$$
...OTHER STATIONS IN TEXAS...

CITY           SKY/WX    TMP DP  RH WIND       PRES   REMARKS
ABILENE        PTCLDY    78  68  71 SE12      30.03R
AMARILLO       CLEAR     75  54  47 S14       30.08R
AUSTIN         PTCLDY    73  73 100 CALM      30.04R
BROWNSVILLE    CLOUDY    79  75  87 S6        30.03R
CORPUS CHRISTI MOCLDY    79  72  79 E7        30.04R
DALLAS FTW     CLOUDY    85  72  65 SW15      29.99R
DEL RIO        PTCLDY    77  70  79 E5        30.01R
EL PASO        MOCLDY    81  54  39 S9        30.06R
HOUSTON INT    MOCLDY    73  70  90 CALM      30.04R
LUBBOCK        PTCLDY    75  58  55 S9        30.07R
SAN ANGELO     CLEAR     77  68  73 S6        30.04R
SAN ANTONIO    MOCLDY    75  70  84 CALM      30.06R
WACO           CLEAR     75  69  81 S12       30.03R
WICHITA FALLS  NOT AVBL
$$
...OTHER LOCATIONS IN NEW MEXICO...

CITY           SKY/WX    TMP DP  RH WIND       PRES   REMARKS
ALAMAGORDO     PTCLDY    82  46  28 S13G23    30.06R
ALBUQUERQUE    PTCLDY    84  42  22 E15       30.10R
CANNON AFB     CLEAR     71  55  57 SE8       30.12R
CLOVIS         CLEAR     72  54  53 SE8         N/A
HOLLOMAN AFB   NOT AVBL
ROSWELL        PTCLDY    78  54  43 S6        30.05R
RUIDOSO        CLEAR     63  48  59 SE10      30.30R
SANTA FE       CLEAR     76  43  30 SE16      30.20R HAZE
TRUTH OR CONSE CLEAR     84  48  28 S10       30.08R
TUCUMCARI      CLEAR     76  49  38 S10       30.06R
$$

USA.gov is the U.S. government's official web portal to all federal, state and local government web resources and services.